HULIANGWANG DIGUI-05

导读

HULIANWANG DIGUI-05是中国于2024年12月16日发射的低轨卫星互联网卫星,隶属于中国卫星互联网星座建设体系。卫星进入预定轨道后,将为全球范围内的互联网络服务提供基础设施支撑,填补地面网络覆盖盲区,推动天地一体化信息网络构建。该发射任务进一步完善了我国低轨卫星星座布局,助力提升全球宽带通信服务能力,是我国卫星互联网建设进程中的重要一步。

Basic Information
目录编号:
62327
目录名称:
HULIANWANG DIGUI-05
国际标识:
2024-240E
轨道中心:
EARTH
卫星名称:
HULIANWANG DIGUI-05
卫星全名:
HULIANGWANG DIGUI-05
卫星状态:
在轨 (已飞行634 天)
发射日期:
2024-12-16 UTC
国别 :
中国 (CN)
星等 :
--
This satellite is enrolled in the Space Conjunction Data Service (SCDS) and the current flight risk assessment level is: No High Risk
Orbit Information
数据来源 国际轨道数据 AOE轨道数据
星历时间 2026-09-11T06:47:17+0800
12小时前
查看轨道信息
2026-09-11T00:00:00+0800
18小时前
查看轨道信息
半长轴 7546.047km 7546.047km
偏心率 0.0001575 0.0001665
轨道倾角 86.505° 86.504°
近地点辐角 89.685° 92.576°
升交点赤经 314.571° 314.666°
平近点角 270.446° 359.774°
近地点 1166.721km 1166.653km
远地点 1169.099km 1169.167km
周期 108.727分钟 108.727分钟
每日圈数 13.244134 13.244134
Detailed Information
使用方式:
暂无
2D Orbit Map
3D Orbit Map
Orbit Altitude Analysis Chart
Orbit Inclination Analysis Chart
Orbit Comprehensive Analysis Chart
View Comprehensive Chart
Conjunction Data List
Event ID Objects TCA Miss Dist (km) Collision Risk Probability Collision Risk Index (CRI) Action
CDM_260912-004900-468306-232724
2026-09-12T
00:49:53+0000
0.584 km
远距离
4.839837E-5 中风险 0.69
Miss Distance Evolution Trend with All Objects
Collision Probability Evolution Trend with All Objects